Hyannis, MA

8:14 AM EDT on October 23, 2017 (GMT -0400)
Barnstable Municipal-Boardman-Polando Field

Weather History for KHYA - March, 2014

Change the Weather History Date:

Thursday, March 27, 2014

  Actual Average Record
Temperature  
Mean Temperature 28 °F -  
Max Temperature 37 °F 49 °F 63 °F (1986)
Min Temperature 21 °F 32 °F 16 °F (1975)
Degree Days  
Heating Degree Days 36    
Moisture  
Dew Point 10 °F    
Average Humidity 46    
Maximum Humidity 73    
Minimum Humidity 26    
Precipitation  
Precipitation 0.00 in - - ()
Sea Level Pressure  
Sea Level Pressure 30.24 in    
Wind  
Wind Speed 15 mph (West)    
Max Wind Speed 20 mph    
Max Gust Speed 34 mph    
Visibility 10 miles    
Events      
Averages and records for this station are not official NWS values.
T = Trace of Precipitation, MM = Missing Value Source: NWS Daily Summary

Daily Weather History Graph

Daily Weather History Graph

Search for Another Location

Airport or City:

Trip Planner

Search our weather history database for the weather conditions in past years. The results will help you decide how hot, cold, wet, or windy it might be!

Date:

Astronomy

Mar. 27, 2014 Rise Set
Actual Time 6:32 AM EDT 7:01 PM EDT
Civil Twilight 6:04 AM EDT 7:28 PM EDT
Nautical Twilight 5:31 AM EDT 8:01 PM EDT
Astronomical Twilight 4:58 AM EDT 8:35 PM EDT
Moon 4:24 AM EDT (3/27) 3:42 PM EDT (3/27)
Length of Visible Light 13h 24m
Length of Day
12h 28m
Waning Crescent, 13% of the Moon is Illuminated
Mar 27
Waning Crescent
Mar 30
New
Apr 7
First Quarter
Apr 15
Full
Apr 22
Last Quarter

Hourly Weather History & Observations

Time (EDT) Temp. Windchill Dew Point Humidity Pressure Visibility Wind Dir Wind Speed Gust Speed Precip Events Conditions
12:56 AM 26.1 °F 12.3 °F 1.9 °F 35% 29.97 in 10.0 mi NW 19.6 mph 33.4 mph N/A   Clear
1:56 AM 25.0 °F 11.7 °F 1.0 °F 36% 30.02 in 10.0 mi NW 17.3 mph 34.5 mph N/A   Clear
2:56 AM 24.1 °F 14.4 °F 1.0 °F 37% 30.06 in 10.0 mi WNW 9.2 mph 27.6 mph N/A   Clear
3:56 AM 21.9 °F 8.7 °F -0.0 °F 38% 30.09 in 10.0 mi WNW 15.0 mph 25.3 mph N/A   Clear
4:56 AM 21.0 °F 9.3 °F -0.0 °F 40% 30.14 in 10.0 mi NW 11.5 mph 20.7 mph N/A   Clear
5:56 AM 21.0 °F 8.6 °F -0.0 °F 40% 30.20 in 10.0 mi WNW 12.7 mph 21.9 mph N/A   Clear
6:56 AM 23.0 °F 8.7 °F -0.0 °F 37% 30.22 in 10.0 mi NW 18.4 mph 33.4 mph N/A   Clear
7:56 AM 24.1 °F 10.6 °F 1.9 °F 38% 30.26 in 10.0 mi NNW 17.3 mph 25.3 mph N/A   Clear
8:56 AM 26.1 °F 13.6 °F 1.9 °F 35% 30.26 in 10.0 mi NNW 16.1 mph 24.2 mph N/A   Clear
9:56 AM 28.0 °F 16.1 °F 3.9 °F 36% 30.30 in 10.0 mi NNW 16.1 mph 21.9 mph N/A   Clear
10:56 AM 28.9 °F 19.8 °F 3.9 °F 35% 30.31 in 10.0 mi NNW 10.4 mph 18.4 mph N/A   Clear
11:56 AM 33.1 °F 30.0 °F 5.0 °F 31% 30.31 in 10.0 mi Variable 3.5 mph - N/A   Clear
12:56 PM 36.0 °F 32.1 °F 3.9 °F 26% 30.31 in 10.0 mi East 4.6 mph - N/A   Clear
1:56 PM 34.0 °F 23.4 °F 12.0 °F 40% 30.29 in 10.0 mi SW 17.3 mph - N/A   Clear
2:56 PM 35.1 °F - 12.0 °F 39% 30.30 in 10.0 mi North - - N/A   Clear
3:56 PM 35.1 °F 24.5 °F 14.0 °F 42% 30.29 in 10.0 mi SSW 18.4 mph 25.3 mph N/A   Clear
4:56 PM 36.0 °F 26.0 °F 17.1 °F 46% 30.29 in 10.0 mi WSW 17.3 mph - N/A   Clear
5:56 PM 35.1 °F 25.2 °F 19.9 °F 54% 30.30 in 10.0 mi SW 16.1 mph - N/A   Clear
6:56 PM 33.1 °F 23.0 °F 21.9 °F 64% 30.31 in 10.0 mi SW 15.0 mph - N/A   Clear
7:56 PM 34.0 °F 23.8 °F 24.1 °F 67% 30.32 in 10.0 mi SW 16.1 mph - N/A   Partly Cloudy
8:56 PM 34.0 °F 25.5 °F 25.0 °F 70% 30.32 in 10.0 mi SSW 11.5 mph - N/A   Clear
9:56 PM 35.1 °F 25.9 °F 26.1 °F 70% 30.31 in 10.0 mi SW 13.8 mph - N/A   Clear
10:56 PM 36.0 °F 26.7 °F 27.0 °F 70% 30.30 in 10.0 mi SSW 15.0 mph - N/A   Clear
11:56 PM 36.0 °F 27.1 °F 28.0 °F 73% 30.28 in 10.0 mi SSW 13.8 mph - N/A   Clear